Weather History for Carson City, NV

Change the Weather History Date:

Monday, November 5, 2012

  Actual Average Record
Temperature  
Mean Temperature 50 °F -  
Max Temperature 71 °F 62 °F 71 °F (2012)
Min Temperature 28 °F 30 °F 17 °F (2011)
Degree Days  
Heating Degree Days 16    
Moisture  
Dew Point 27 °F    
Average Humidity 46    
Maximum Humidity 80    
Minimum Humidity 20    
Precipitation  
Precipitation 0.00 in - - ()
Sea Level Pressure  
Sea Level Pressure 30.42 in    
Wind  
Wind Speed 2 mph (ENE)    
Max Wind Speed 17 mph    
Max Gust Speed 22 mph    
Visibility 10 miles    
Events      
Averages and records for this station are not official NWS values.
T = Trace of Precipitation, MM = Missing Value Source: NWS Daily Summary

Daily Weather History Graph

Daily Weather History Graph

Search for Another Location

Airport:

Trip Planner

Search our weather history database for the weather conditions in past years. The results will help you decide how hot, cold, wet, or windy it might be!

Date:

Astronomy

Nov. 05, 2012 Rise Set
Actual Time 6:31 AM PST 4:52 PM PST
Civil Twilight 6:03 AM PST 5:20 PM PST
Nautical Twilight 5:31 AM PST 5:52 PM PST
Astronomical Twilight 5:00 AM PST 6:24 PM PST
Moon 10:35 PM PST (11/5) 11:53 AM PST (11/5)
Length of Visible Light 11h 17m
Length of Day
10h 21m
Waning Gibbous, 62% of the Moon is Illuminated
Nov 5
Waning Gibbous
Nov 6
Last Quarter
Nov 13
New
Nov 20
First Quarter
Nov 28
Full

Hourly Weather History & Observations

Time (PST) Temp. Windchill Dew Point Humidity Pressure Visibility Wind Dir Wind Speed Gust Speed Precip Events Conditions
12:15 AM 41.0 °F - 26.6 °F 57% 30.48 in 10.0 mi Calm Calm - N/A   Clear
12:35 AM 37.4 °F - 26.6 °F 65% 30.48 in 10.0 mi Calm Calm - N/A   Clear
12:55 AM 39.2 °F - 24.8 °F 56% 30.47 in 10.0 mi Calm Calm - N/A   Clear
1:15 AM 39.2 °F - 24.8 °F 56% 30.47 in 10.0 mi Calm Calm - N/A   Clear
1:35 AM 37.4 °F - 26.6 °F 65% 30.47 in 10.0 mi Calm Calm - N/A   Clear
1:55 AM 37.4 °F - 24.8 °F 60% 30.47 in 10.0 mi Calm Calm - N/A   Clear
2:15 AM 37.4 °F - 24.8 °F 60% 30.47 in 10.0 mi Calm Calm - N/A   Clear
2:35 AM 35.6 °F - 24.8 °F 65% 30.47 in 10.0 mi Calm Calm - N/A   Clear
2:55 AM 37.4 °F - 26.6 °F 65% 30.46 in 10.0 mi Calm Calm - N/A   Clear
3:15 AM 33.8 °F - 24.8 °F 70% 30.47 in 10.0 mi Calm Calm - N/A   Clear
3:35 AM 35.6 °F - 24.8 °F 65% 30.46 in 10.0 mi Calm Calm - N/A   Clear
3:55 AM 32.0 °F - 24.8 °F 75% 30.46 in 10.0 mi Calm Calm - N/A   Clear
4:15 AM 32.0 °F - 24.8 °F 75% 30.47 in 10.0 mi Calm Calm - N/A   Clear
4:35 AM 32.0 °F - 24.8 °F 75% 30.47 in 10.0 mi Calm Calm - N/A   Clear
4:55 AM 32.0 °F - 23.0 °F 69% 30.47 in 10.0 mi Calm Calm - N/A   Clear
5:15 AM 32.0 °F - 24.8 °F 75% 30.48 in 10.0 mi Calm Calm - N/A   Clear
5:35 AM 32.0 °F - 24.8 °F 75% 30.48 in 10.0 mi Calm Calm - N/A   Clear
5:55 AM 32.0 °F 28.7 °F 23.0 °F 69% 30.48 in 10.0 mi NW 3.5 mph - N/A   Clear
6:15 AM 32.0 °F - 24.8 °F 75% 30.48 in 10.0 mi Calm Calm - N/A   Clear
6:35 AM 28.4 °F - 23.0 °F 80% 30.49 in 10.0 mi Calm Calm - N/A   Clear
6:55 AM 32.0 °F - 23.0 °F 69% 30.49 in 10.0 mi Calm Calm - N/A   Clear
7:15 AM 32.0 °F - 24.8 °F 75% 30.50 in 10.0 mi Calm Calm - N/A   Clear
7:35 AM 35.6 °F - 24.8 °F 65% 30.51 in 10.0 mi Calm Calm - N/A   Clear
7:55 AM 37.4 °F - 24.8 °F 60% 30.50 in 10.0 mi Calm Calm - N/A   Clear
8:15 AM 39.2 °F - 26.6 °F 61% 30.50 in 10.0 mi Calm Calm - N/A   Clear
8:35 AM 41.0 °F - 26.6 °F 57% 30.50 in 10.0 mi Calm Calm - N/A   Clear
8:55 AM 44.6 °F - 26.6 °F 49% 30.50 in 10.0 mi Calm Calm - N/A   Clear
9:15 AM 48.2 °F - 26.6 °F 43% 30.49 in 10.0 mi Calm Calm - N/A   Clear
9:35 AM 50.0 °F - 26.6 °F 40% 30.49 in 10.0 mi Calm Calm - N/A   Clear
9:55 AM 50.0 °F - 26.6 °F 40% 30.48 in 10.0 mi Calm Calm - N/A   Clear
10:15 AM 53.6 °F - 26.6 °F 35% 30.47 in 10.0 mi NW 3.5 mph - N/A   Clear
10:35 AM 55.4 °F - 26.6 °F 33% 30.46 in 10.0 mi Calm Calm - N/A   Clear
10:55 AM 57.2 °F - 28.4 °F 33% 30.45 in 10.0 mi SW 3.5 mph - N/A   Clear
11:15 AM 59.0 °F - 28.4 °F 31% 30.43 in 10.0 mi Calm Calm - N/A   Clear
11:35 AM 60.8 °F - 28.4 °F 29% 30.42 in 10.0 mi Calm Calm - N/A   Clear
11:55 AM 64.4 °F - 28.4 °F 26% 30.40 in 10.0 mi ESE 3.5 mph - N/A   Clear
12:15 PM 66.2 °F - 28.4 °F 24% 30.39 in 10.0 mi SE 3.5 mph - N/A   Clear
12:35 PM 66.2 °F - 28.4 °F 24% 30.38 in 10.0 mi East 4.6 mph - N/A   Clear
12:55 PM 68.0 °F - 26.6 °F 21% 30.37 in 10.0 mi SE 3.5 mph - N/A   Clear
1:15 PM 69.8 °F - 28.4 °F 21% 30.36 in 10.0 mi East 5.8 mph - N/A   Clear
1:35 PM 71.6 °F - 28.4 °F 20% 30.36 in 10.0 mi East 8.1 mph - N/A   Clear
1:55 PM 71.6 °F - 28.4 °F 20% 30.35 in 10.0 mi ENE 12.7 mph - N/A   Clear
2:15 PM 71.6 °F - 28.4 °F 20% 30.35 in 10.0 mi ENE 10.4 mph - N/A   Clear
2:35 PM 71.6 °F - 28.4 °F 20% 30.35 in 10.0 mi East 13.8 mph - N/A   Clear
2:55 PM 71.6 °F - 28.4 °F 20% 30.34 in 10.0 mi ENE 13.8 mph - N/A   Clear
3:15 PM 71.6 °F - 28.4 °F 20% 30.34 in 10.0 mi East 13.8 mph 18.4 mph N/A   Clear
3:35 PM 69.8 °F - 28.4 °F 21% 30.34 in 10.0 mi ENE 15.0 mph - N/A   Clear
3:55 PM 68.0 °F - 28.4 °F 23% 30.34 in 10.0 mi ENE 15.0 mph 21.9 mph N/A   Clear
4:15 PM 66.2 °F - 28.4 °F 24% 30.34 in 10.0 mi ENE 17.3 mph 21.9 mph N/A   Clear
4:35 PM 64.4 °F - 26.6 °F 24% 30.34 in 10.0 mi ENE 16.1 mph - N/A   Clear
4:55 PM 64.4 °F - 26.6 °F 24% 30.34 in 10.0 mi ENE 13.8 mph - N/A   Clear
5:15 PM 62.6 °F - 28.4 °F 27% 30.35 in 10.0 mi ENE 13.8 mph - N/A   Clear
5:35 PM 62.6 °F - 28.4 °F 27% 30.35 in 10.0 mi ENE 11.5 mph - N/A   Clear
5:55 PM 62.6 °F - 28.4 °F 27% 30.36 in 10.0 mi ENE 11.5 mph - N/A   Clear
6:15 PM 62.6 °F - 28.4 °F 27% 30.36 in 10.0 mi NNE 8.1 mph - N/A   Clear
6:35 PM 59.0 °F - 28.4 °F 31% 30.37 in 10.0 mi Calm Calm - N/A   Clear
6:55 PM 57.2 °F - 28.4 °F 33% 30.37 in 10.0 mi Calm Calm - N/A   Clear
7:15 PM 55.4 °F - 28.4 °F 36% 30.37 in 10.0 mi SSE 3.5 mph - N/A   Clear
7:35 PM 53.6 °F - 30.2 °F 41% 30.37 in 10.0 mi Calm Calm - N/A   Clear
7:55 PM 51.8 °F - 28.4 °F 41% 30.37 in 10.0 mi Calm Calm - N/A   Clear
8:15 PM 48.2 °F - 26.6 °F 43% 30.37 in 10.0 mi Calm Calm - N/A   Clear
8:35 PM 48.2 °F - 26.6 °F 43% 30.38 in 10.0 mi NNW 3.5 mph - N/A   Clear
8:55 PM 46.4 °F 45.2 °F 26.6 °F 46% 30.38 in 10.0 mi North 3.5 mph - N/A   Clear
9:15 PM 46.4 °F - 26.6 °F 46% 30.38 in 10.0 mi Calm Calm - N/A   Clear
9:35 PM 46.4 °F - 28.4 °F 50% 30.38 in 10.0 mi Calm Calm - N/A   Clear
9:55 PM 44.6 °F - 28.4 °F 53% 30.38 in 10.0 mi Calm Calm - N/A   Clear
10:15 PM 44.6 °F 43.1 °F 26.6 °F 49% 30.38 in 10.0 mi NW 3.5 mph - N/A   Clear
10:35 PM 44.6 °F 43.1 °F 26.6 °F 49% 30.38 in 10.0 mi NNW 3.5 mph - N/A   Clear
10:55 PM 41.0 °F - 28.4 °F 61% 30.37 in 10.0 mi Calm Calm - N/A   Clear
11:15 PM 41.0 °F - 28.4 °F 61% 30.37 in 10.0 mi Calm Calm - N/A   Clear
11:35 PM 39.2 °F - 26.6 °F 61% 30.37 in 10.0 mi Calm Calm - N/A   Clear
11:55 PM 41.0 °F - 26.6 °F 57% 30.36 in 10.0 mi Calm Calm - N/A   Clear